Wind_Speed
9 10 11 13 13 14 16 17 20 21 21 22 22 22 21 19 21 22 22 22 23 23 24 24 25 25 25 25 25 25 25 25 24 24 23 23 23 22 21 21 21 21 21 20
10 10 11 12 14 15 17 19 20 21 21 22 22 22 21 19 20 21 23 23 23 23 24 24 24 25 25 24 23 23 23 23 22 22 22 22 21 20 19 20 20 20 19 19
8 8 10 13 14 16 18 18 19 20 20 19 20 19 19 19 20 20 21 21 22 22 23 22 22 22 23 23 23 22 21 21 20 20 20 19 18 18 18 18 18 18 17 17
8 9 11 12 13 15 16 16 17 18 18 18 19 18 18 19 19 19 19 19 19 19 20 20 20 20 20 19 18 18 18 17 17 16 16 16 16 16 15 14 14 14 14 14
8 9 11 11 11 13 13 13 14 15 15 16 17 17 17 16 16 16 16 17 17 17 17 18 18 17 16 15 15 15 14 14 14 13 13 14 14 13 12 12 11 10 10 10
8 10 11 10 9 10 11 11 12 12 13 14 15 14 14 13 13 14 15 15 15 15 16 16 16 14 13 13 13 13 12 12 12 11 12 12 11 10 10 9 9 8 7 7
8 9 9 8 9 9 10 10 10 10 10 11 11 12 11 12 12 13 13 13 13 13 14 14 13 12 12 11 11 10 9 9 9 9 9 9 8 8 7 7 6 5 5 4
7 8 9 8 9 9 9 9 10 9 9 10 10 10 10 10 11 12 12 12 12 12 12 12 12 11 10 9 8 8 8 8 7 7 7 7 6 6 5 4 3 3 3 2
7 7 8 8 9 9 9 9 8 8 8 8 8 8 9 10 10 10 11 10 10 11 10 10 10 10 9 8 7 8 7 7 6 6 6 6 5 3 2 1 2 2 1 0
6 6 7 7 8 8 8 7 7 7 7 7 7 8 8 9 9 9 9 9 9 9 9 9 9 9 8 7 7 7 7 8 6 5 5 4 4 3 2 2 2 3 2 2
5 6 6 6 7 7 7 6 6 6 6 6 7 7 7 8 8 8 8 9 9 9 8 8 8 8 8 8 8 8 7 7 7 6 6 5 4 4 4 4 3 3 4 4
4 5 6 6 6 6 5 5 5 4 5 5 6 7 8 7 7 7 7 7 7 8 7 8 8 9 9 9 9 8 8 8 7 7 6 6 6 5 6 6 6 6 6 6
4 5 5 5 6 5 5 4 4 4 4 5 5 6 6 7 7 6 6 6 7 7 8 8 8 9 9 9 9 9 8 8 7 7 7 7 7 7 7 7 7 7 7 7
4 4 5 5 5 5 4 4 4 4 4 4 4 5 6 6 6 6 6 6 7 7 7 7 8 8 9 9 10 10 9 9 8 7 7 7 7 7 7 7 7 7 6 6
4 4 4 4 4 4 3 3 3 4 3 4 4 4 5 6 6 6 6 6 6 6 6 6 7 8 8 9 9 10 10 9 9 8 8 7 7 7 7 8 8 7 7 7
3 3 3 3 3 3 3 3 3 3 4 3 4 4 4 5 6 6 6 6 6 5 5 5 6 7 7 8 8 9 10 10 9 8 8 8 7 7 7 7 7 7 7 7
2 2 3 3 3 2 3 3 3 3 3 4 4 4 4 5 5 5 6 6 6 5 5 5 6 6 7 7 8 8 9 9 9 9 8 8 7 7 7 6 6 6 6 6
2 2 2 3 2 3 3 3 3 3 3 4 4 4 4 4 4 5 5 5 5 5 4 5 5 6 6 6 7 7 8 8 8 8 8 8 7 7 6 6 6 5 5 5
1 1 2 2 3 3 3 3 4 4 4 4 4 4 4 4 4 4 4 5 4 4 4 4 5 5 5 5 5 6 6 6 6 6 7 7 6 6 6 5 5 4 4 4
1 1 1 2 3 3 3 3 4 4 4 4 4 5 4 4 4 4 4 4 4 4 4 4 4 4 5 5 5 5 4 5 5 5 5 5 5 5 4 4 3 3 2 2
2 1 1 2 3 3 3 3 4 4 4 4 5 5 5 4 4 4 4 4 4 4 4 4 4 4 4 4 4 4 4 4 4 4 4 4 3 3 2 2 2 1 1 0
3 2 2 3 3 3 4 4 4 4 4 5 5 5 5 5 5 5 4 4 4 4 4 4 4 4 4 4 4 4 4 4 4 4 4 3 3 3 2 2 2 2 2 2
3 3 3 3 4 4 5 4 4 4 4 5 5 5 5 5 5 5 5 5 5 4 4 4 4 4 5 5 5 5 5 5 5 5 5 4 4 3 3 3 4 4 5 5
3 3 3 4 4 4 4 4 4 4 4 5 5 6 5 5 5 5 5 5 5 5 5 5 6 6 6 6 7 7 7 6 7 7 7 7 7 7 7 7 8 8 8 9
4 4 4 4 4 4 4 4 4 4 5 5 5 6 6 6 6 6 6 6 6 6 6 7 7 7 8 8 9 9 9 9 9 9 10 10 10 10 11 11 12 12 13 14
5 5 5 5 5 5 4 4 5 5 6 6 6 6 7 7 7 8 8 7 8 8 8 9 9 9 10 10 10 11 11 11 11 12 12 13 13 14 14 15 15 16 17 18
6 6 6 6 6 6 6 6 6 7 7 7 7 7 8 8 9 9 9 9 9 9 10 10 10 11 11 11 11 12 12 13 14 14 15 15 16 16 17 18 19 19 20 21
Wind_Direction
241 236 242 247 249 250 255 258 261 265 270 276 280 282 285 285 286 287 287 288 291 293 294 294 295 296 295 295 294 293 291 290 290 290 289 288 288 289 288 287 286 285 285 285
251 243 244 244 246 247 252 258 263 267 269 272 278 281 286 287 287 287 287 289 291 292 294 295 295 296 297 297 295 294 294 293 291 290 290 291 290 290 291 290 287 285 285 285
261 258 257 255 263 262 261 261 266 270 274 278 282 286 287 288 287 288 288 291 292 294 298 301 302 303 300 299 297 296 294 292 290 290 290 293 290 290 292 292 290 288 286 286
259 263 264 271 269 269 268 269 273 275 277 277 284 290 292 292 291 291 292 296 298 299 303 304 305 305 304 302 299 298 297 295 294 293 293 293 292 291 289 290 290 289 288 287
266 270 274 279 278 280 280 277 279 280 280 281 286 290 295 295 295 298 298 302 306 307 309 311 311 310 309 305 304 303 301 302 301 300 299 295 294 291 289 290 292 293 292 292
275 273 271 282 285 289 290 290 288 290 291 291 291 293 295 298 301 306 306 308 312 312 315 318 318 315 314 314 312 309 306 305 304 304 303 299 298 297 295 291 291 295 296 298
273 280 286 289 293 295 293 298 299 301 299 297 300 303 304 305 310 313 314 317 319 321 323 325 326 326 324 323 324 322 316 313 311 310 309 307 304 302 302 293 287 287 292 301
281 290 292 291 296 297 300 299 299 307 306 301 306 312 312 313 316 319 320 321 323 326 328 331 333 335 335 336 337 335 331 330 325 327 328 324 313 305 300 300 298 293 290 299
286 292 297 292 295 298 301 300 300 306 312 312 314 318 321 319 320 324 329 330 333 332 331 337 342 344 343 343 348 352 347 344 337 331 336 339 338 332 332 334 340 334 327 317
287 295 300 297 300 305 308 307 306 310 313 316 323 323 324 326 328 331 338 343 343 343 343 345 350 355 356 358 4 10 11 8 0 352 352 357 360 18 33 28 36 37 56 99
286 301 310 314 317 318 317 318 319 318 323 323 324 330 334 334 338 341 347 351 351 354 357 356 358 4 11 17 19 18 15 15 17 22 28 30 34 49 58 58 58 63 77 92
296 306 312 320 325 329 328 328 329 330 334 336 336 338 343 345 348 354 357 360 2 5 11 15 17 19 20 20 22 26 29 31 34 40 45 45 51 58 66 74 75 80 91 105
297 307 313 319 327 332 332 336 335 332 335 338 340 343 349 352 357 2 5 9 13 17 25 25 25 27 31 34 34 35 36 39 44 49 51 56 61 67 71 73 77 84 95 103
289 308 317 320 326 334 341 346 347 344 344 350 350 355 359 2 6 8 13 18 19 23 32 33 33 32 33 36 38 39 42 48 52 55 56 55 59 65 69 74 82 91 97 103
288 307 317 321 326 331 343 352 1 4 1 356 356 358 5 11 16 16 15 17 20 23 25 28 33 33 36 37 38 44 48 50 52 55 56 60 64 68 72 77 87 94 102 108
296 309 315 323 333 342 352 358 4 7 6 2 2 4 8 16 21 20 20 19 21 27 29 35 34 34 36 37 42 48 50 51 52 52 56 60 65 70 77 81 85 94 103 110
303 320 325 333 343 355 3 4 6 7 10 10 9 11 15 17 20 20 20 20 23 30 40 39 37 34 36 41 47 49 51 52 52 54 59 61 63 68 72 77 84 93 101 108
305 327 346 1 10 7 7 14 13 8 8 10 10 11 12 13 16 18 18 21 29 33 39 39 37 34 35 40 41 42 42 46 48 51 58 61 62 65 70 74 77 85 98 108
293 333 5 19 22 10 12 16 16 15 15 12 9 10 11 14 17 15 15 19 24 34 39 37 35 37 39 39 36 35 37 39 41 47 51 54 57 61 67 72 74 82 94 101
241 260 1 9 8 4 7 8 8 9 9 7 3 1 4 6 7 14 18 20 24 24 24 27 29 34 36 32 27 27 26 27 32 37 39 42 47 53 57 61 62 70 86 97
232 264 306 335 339 344 351 352 352 353 354 354 353 352 354 353 352 360 8 6 3 6 11 14 17 16 14 14 14 14 10 9 13 16 15 13 16 27 36 42 42 40 48 19
251 272 288 303 315 326 332 332 332 334 336 341 346 347 347 348 346 347 353 355 355 354 353 352 351 351 350 350 351 353 352 349 346 344 342 341 346 348 346 341 332 313 295 286
259 274 285 292 304 310 311 313 315 321 330 336 339 340 341 342 341 340 341 341 340 338 335 331 328 326 327 324 324 326 329 330 327 322 317 314 313 310 305 303 299 293 289 287
259 267 275 287 301 307 307 307 309 312 320 327 331 334 333 331 333 333 332 332 331 328 324 319 314 314 314 312 309 307 307 306 305 304 301 299 296 291 288 287 286 285 285 285
258 268 273 284 298 307 308 307 310 315 318 321 325 328 331 329 327 326 325 323 319 317 315 311 310 309 307 306 304 302 300 298 296 294 294 293 292 289 287 285 284 283 283 284
259 268 275 283 292 297 300 303 308 313 316 317 321 324 323 324 325 323 320 318 314 311 309 308 308 307 305 303 300 298 297 296 295 294 292 290 289 288 288 287 286 285 285 285
261 267 275 283 288 291 295 299 304 308 311 311 311 315 316 317 318 319 318 316 313 310 308 306 306 307 306 305 302 299 297 296 295 294 292 291 289 288 287 287 286 286 286 286
Height
5807 5809 5810 5810 5812 5812 5811 5811 5810 5809 5807 5806 5805 5803 5801 5799 5799 5797 5795 5794 5792 5790 5787 5785 5783 5781 5778 5776 5773 5771 5769 5768 5766 5765 5763 5762 5761 5760 5759 5758 5757 5756 5755 5755
5805 5806 5806 5807 5808 5808 5808 5807 5806 5805 5803 5802 5800 5799 5797 5795 5794 5793 5791 5789 5787 5785 5782 5780 5777 5775 5772 5770 5767 5765 5763 5761 5760 5759 5757 5756 5755 5754 5753 5753 5752 5751 5750 5750
5803 5803 5803 5803 5803 5804 5803 5803 5802 5801 5799 5797 5796 5794 5793 5791 5790 5788 5787 5785 5782 5780 5777 5774 5772 5769 5766 5764 5761 5759 5757 5756 5754 5753 5752 5751 5750 5749 5749 5748 5747 5746 5746 5745
5800 5801 5800 5802 5800 5800 5799 5799 5798 5796 5795 5794 5792 5790 5789 5787 5786 5784 5782 5780 5778 5775 5773 5770 5767 5764 5761 5758 5756 5754 5752 5751 5749 5748 5747 5747 5746 5745 5744 5743 5743 5742 5741 5741
5798 5798 5798 5798 5797 5796 5795 5795 5794 5792 5791 5790 5789 5787 5785 5784 5782 5781 5778 5776 5774 5771 5769 5766 5763 5760 5757 5754 5752 5750 5748 5747 5746 5745 5744 5743 5742 5741 5741 5740 5739 5739 5738 5738
5796 5796 5796 5796 5795 5794 5794 5792 5791 5789 5788 5787 5785 5784 5783 5781 5779 5777 5775 5773 5771 5768 5766 5763 5760 5757 5754 5752 5749 5747 5746 5744 5743 5742 5741 5740 5739 5739 5738 5737 5737 5737 5736 5736
5795 5794 5793 5794 5793 5793 5793 5791 5789 5787 5785 5784 5783 5781 5780 5778 5777 5775 5773 5771 5768 5766 5763 5760 5757 5754 5752 5749 5747 5745 5744 5742 5741 5740 5739 5738 5737 5736 5736 5735 5735 5735 5735 5735
5794 5793 5794 5792 5791 5791 5790 5788 5786 5785 5784 5782 5781 5779 5778 5776 5775 5773 5771 5769 5766 5764 5761 5758 5755 5753 5750 5748 5746 5744 5743 5741 5740 5739 5738 5737 5736 5735 5735 5735 5735 5735 5735 5735
5793 5794 5792 5790 5789 5788 5787 5786 5785 5784 5782 5781 5780 5778 5777 5775 5773 5772 5769 5767 5765 5762 5759 5757 5754 5752 5750 5748 5746 5744 5742 5741 5739 5739 5737 5736 5736 5735 5735 5735 5734 5735 5735 5735
5792 5791 5790 5789 5788 5787 5785 5784 5783 5782 5781 5780 5779 5777 5776 5774 5772 5770 5768 5766 5763 5761 5759 5756 5754 5752 5750 5747 5746 5744 5742 5741 5740 5739 5737 5737 5736 5735 5735 5735 5735 5735 5735 5735
5790 5790 5789 5788 5787 5785 5784 5783 5782 5781 5780 5779 5778 5776 5775 5773 5772 5770 5768 5765 5763 5761 5759 5757 5755 5752 5750 5748 5746 5745 5743 5742 5741 5739 5738 5738 5737 5736 5736 5736 5736 5736 5736 5736
5790 5789 5788 5787 5786 5784 5783 5782 5781 5780 5779 5778 5777 5776 5774 5773 5771 5769 5767 5766 5763 5761 5759 5757 5755 5753 5751 5749 5748 5746 5745 5743 5742 5741 5740 5739 5739 5738 5738 5737 5737 5737 5737 5738
5789 5788 5787 5786 5785 5783 5782 5781 5780 5779 5778 5777 5776 5775 5774 5773 5771 5769 5768 5766 5764 5762 5760 5759 5757 5755 5753 5751 5749 5747 5746 5745 5744 5743 5742 5741 5740 5740 5739 5739 5739 5739 5739 5740
5788 5788 5786 5785 5784 5783 5781 5780 5779 5778 5777 5777 5776 5775 5774 5772 5771 5769 5768 5767 5765 5763 5762 5760 5759 5757 5755 5753 5751 5750 5748 5747 5746 5745 5744 5743 5743 5742 5742 5741 5741 5741 5742 5742
5787 5787 5786 5785 5783 5782 5781 5780 5779 5778 5777 5776 5776 5775 5774 5773 5771 5770 5769 5767 5766 5765 5763 5762 5760 5759 5757 5755 5754 5752 5751 5749 5748 5747 5746 5745 5745 5744 5744 5744 5744 5744 5744 5745
5786 5785 5785 5784 5783 5782 5781 5780 5779 5778 5777 5777 5776 5775 5774 5773 5772 5771 5770 5768 5767 5766 5764 5763 5762 5761 5759 5757 5756 5755 5753 5752 5751 5750 5749 5748 5747 5747 5747 5747 5747 5747 5747 5748
5785 5785 5784 5783 5783 5782 5781 5780 5779 5779 5778 5777 5776 5775 5774 5773 5773 5772 5770 5769 5768 5767 5766 5765 5764 5763 5761 5760 5759 5758 5756 5755 5754 5752 5751 5751 5750 5750 5749 5749 5749 5749 5750 5750
5785 5784 5784 5784 5783 5782 5782 5781 5780 5779 5778 5777 5776 5776 5775 5774 5773 5772 5771 5770 5769 5768 5767 5766 5765 5764 5763 5762 5761 5760 5759 5758 5756 5755 5754 5754 5753 5752 5752 5752 5752 5752 5752 5752
5784 5784 5784 5784 5783 5783 5782 5781 5780 5779 5778 5778 5777 5776 5775 5774 5773 5772 5772 5771 5770 5769 5768 5767 5766 5765 5765 5764 5763 5762 5761 5760 5759 5758 5757 5756 5755 5755 5754 5754 5754 5754 5754 5754
5784 5784 5784 5784 5783 5783 5782 5781 5780 5780 5779 5778 5777 5776 5776 5775 5774 5773 5772 5771 5771 5770 5769 5768 5768 5767 5766 5765 5764 5763 5762 5762 5761 5760 5759 5758 5758 5757 5756 5756 5756 5755 5755 5756
5784 5784 5784 5784 5783 5783 5782 5781 5780 5780 5779 5778 5777 5777 5776 5775 5774 5773 5773 5772 5771 5771 5770 5769 5768 5768 5767 5766 5765 5764 5764 5763 5762 5761 5760 5760 5759 5758 5758 5757 5757 5757 5757 5757
5784 5784 5784 5783 5783 5782 5782 5781 5780 5779 5779 5778 5777 5777 5776 5775 5775 5774 5773 5772 5772 5771 5770 5770 5769 5768 5768 5767 5766 5765 5764 5763 5763 5762 5761 5761 5760 5759 5759 5758 5758 5758 5757 5757
5783 5783 5783 5783 5782 5782 5781 5780 5779 5779 5778 5777 5777 5776 5776 5775 5774 5774 5773 5772 5771 5771 5770 5770 5769 5768 5768 5767 5766 5765 5764 5764 5763 5762 5761 5761 5760 5759 5759 5758 5758 5757 5757 5757
5782 5782 5782 5782 5781 5780 5780 5779 5778 5778 5777 5777 5776 5776 5775 5775 5774 5773 5772 5772 5771 5770 5770 5769 5769 5768 5767 5766 5765 5765 5764 5763 5762 5761 5761 5760 5759 5759 5758 5757 5757 5756 5756 5755
5781 5781 5781 5781 5780 5779 5779 5778 5778 5777 5777 5776 5776 5775 5775 5774 5773 5773 5772 5771 5770 5769 5769 5768 5768 5767 5766 5765 5764 5763 5762 5761 5761 5760 5759 5758 5758 5757 5756 5755 5754 5754 5753 5752
5780 5780 5780 5780 5779 5779 5778 5778 5777 5777 5776 5776 5775 5775 5774 5773 5772 5771 5771 5770 5769 5768 5767 5767 5766 5765 5764 5763 5762 5761 5760 5759 5758 5757 5757 5756 5755 5754 5753 5752 5751 5750 5749 5748
5778 5778 5778 5778 5778 5777 5777 5777 5776 5776 5775 5775 5774 5774 5773 5772 5771 5770 5769 5768 5767 5766 5766 5765 5764 5763 5762 5761 5760 5759 5758 5757 5756 5754 5753 5752 5751 5749 5748 5747 5746 5745 5743 5742